リニア彗星

C/2007 M3 ( LINEAR )

English version
Home page
Updated on July 21, 2011

---------------------------------------------------------------------

・ プロフィール

発見日 2007年6月21日
発見光度 17.2等
発見者 Lincoln Laboratory Near-Earth Asteroid Research project

・ 写真集

・ 軌道要素

Epoch 2007 Sept. 17.0 TT = JDT 2454360.5
T 2007 Sept. 4.59468 TT                                 MPC
q   3.4687535            (2000.0)            P               Q
z  +0.0057643      Peri.  125.73926     +0.07549955     -0.97522579
 +/-0.0000015      Node    41.62782     -0.98573033     -0.04153204
e   0.9800049      Incl.  161.75930     -0.15045110     -0.21727803
From 597 observations 2006 Nov. 12-2008 July 1, mean residual 0".5.

・ 星図

・ 光度変化

        m1 = 1.3 + 5 logΔ + 23.0 log r(t - 100)

---------------------------------------------------------------------

軌道要素はM.P.E.C. 2011-N13に掲載されたものです。
星図は StellaNavigator Ver.2.0 for Windows (アストロアーツ編著 / アスキー出版局刊) で作成したものです。
光度グラフはComet for Windowsで作成したものです。

---------------------------------------------------------------------

Copyright(C) Seiichi Yoshida (comet@aerith.net). All rights reserved.